Weather History for Kearney, NE

Change the Weather History Date:

Saturday, November 24, 2012

  Actual Average Record
Temperature  
Mean Temperature 37 °F 33 °F  
Max Temperature 54 °F 44 °F 71 °F (1990)
Min Temperature 19 °F 21 °F 0 °F (1938)
Degree Days  
Heating Degree Days 28 32  
Cooling Degree Days 0 0  
Moisture  
Dew Point 17 °F    
Average Humidity 46    
Maximum Humidity 63    
Minimum Humidity 28    
Precipitation  
Precipitation 0.00 in - 1.30 in (2001)
Sea Level Pressure  
Sea Level Pressure 30.00 in    
Wind  
Wind Speed 10 mph (SSW)    
Max Wind Speed 22 mph    
Max Gust Speed 18 mph    
Visibility 10 miles    
Events      
T = Trace of Precipitation, MM = Missing Value Source: NWS Daily Summary

Daily Weather History Graph

Daily Weather History Graph

Search for Another Location

Airport:

Trip Planner

Search our weather history database for the weather conditions in past years. The results will help you decide how hot, cold, wet, or windy it might be!

Date:

Astronomy

Nov. 24, 2012 Rise Set
Actual Time 7:33 AM CST 5:11 PM CST
Civil Twilight 7:03 AM CST 5:41 PM CST
Nautical Twilight 6:30 AM CST 6:15 PM CST
Astronomical Twilight 5:57 AM CST 6:48 PM CST
Moon 2:58 PM CST (11/24) 3:51 AM CST (11/24)
Length of Visible Light 10h 37m
Length of Day
9h 37m
Waxing Gibbous, 87% of the Moon is Illuminated
Nov 24
Waxing Gibbous
Nov 28
Full
Dec 6
Last Quarter
Dec 13
New
Dec 19
First Quarter

Hourly Weather History & Observations

Time (CST) Temp. Windchill Dew Point Humidity Pressure Visibility Wind Dir Wind Speed Gust Speed Precip Events Conditions
12:15 AM 19.4 °F 11.5 °F 10.4 °F 68% 30.30 in 10.0 mi South 5.8 mph - N/A   Clear
12:35 AM 21.2 °F 12.6 °F 10.4 °F 63% 30.30 in 10.0 mi South 6.9 mph - N/A   Clear
12:55 AM 21.2 °F 14.9 °F 10.4 °F 63% 30.28 in 10.0 mi South 4.6 mph - N/A   Clear
1:15 AM 23.0 °F 17.0 °F 10.4 °F 59% 30.27 in 10.0 mi South 4.6 mph - N/A   Clear
1:35 AM 21.2 °F 10.1 °F 10.4 °F 63% 30.26 in 10.0 mi South 10.4 mph - N/A   Clear
1:55 AM 24.8 °F 15.3 °F 12.2 °F 59% 30.24 in 10.0 mi South 9.2 mph - N/A   Clear
2:15 AM 24.8 °F 14.6 °F 12.2 °F 59% 30.23 in 10.0 mi South 10.4 mph - N/A   Clear
2:35 AM 23.0 °F 13.1 °F 12.2 °F 63% 30.23 in 10.0 mi South 9.2 mph - N/A   Clear
2:55 AM 24.8 °F 13.4 °F 12.2 °F 59% 30.21 in 10.0 mi South 12.7 mph - N/A   Clear
3:15 AM 26.6 °F 16.2 °F 12.2 °F 55% 30.21 in 10.0 mi South 11.5 mph - N/A   Clear
3:35 AM 26.6 °F 15.2 °F 12.2 °F 55% 30.20 in 10.0 mi South 13.8 mph - N/A   Clear
3:55 AM 26.6 °F 16.8 °F 12.2 °F 55% 30.19 in 10.0 mi South 10.4 mph - N/A   Clear
4:15 AM 26.6 °F 15.2 °F 12.2 °F 55% 30.17 in 10.0 mi South 13.8 mph - N/A   Clear
4:35 AM 26.6 °F 15.7 °F 14.0 °F 59% 30.15 in 10.0 mi South 12.7 mph - N/A   Clear
4:55 AM 28.4 °F 18.5 °F 14.0 °F 55% 30.14 in 10.0 mi South 11.5 mph - N/A   Clear
5:15 AM 28.4 °F 17.5 °F 15.8 °F 59% 30.14 in 10.0 mi South 13.8 mph - N/A   Clear
5:35 AM 28.4 °F 17.5 °F 14.0 °F 55% 30.13 in 10.0 mi South 13.8 mph - N/A   Clear
5:55 AM 26.6 °F 14.7 °F 15.8 °F 64% 30.11 in 10.0 mi SSE 15.0 mph - N/A   Clear
6:15 AM 26.6 °F 15.7 °F 15.8 °F 64% 30.11 in 10.0 mi South 12.7 mph - N/A   Clear
6:35 AM 26.6 °F 15.7 °F 15.8 °F 64% 30.10 in 10.0 mi South 12.7 mph - N/A   Clear
6:55 AM 26.6 °F 16.2 °F 15.8 °F 64% 30.09 in 10.0 mi SSE 11.5 mph - N/A   Clear
7:15 AM 28.4 °F 18.0 °F 15.8 °F 59% 30.08 in 10.0 mi South 12.7 mph - N/A   Clear
7:35 AM 28.4 °F 17.5 °F 15.8 °F 59% 30.08 in 10.0 mi South 13.8 mph - N/A   Clear
7:55 AM 26.6 °F 15.7 °F 15.8 °F 64% 30.06 in 10.0 mi South 12.7 mph - N/A   Clear
8:15 AM 26.6 °F 16.2 °F 15.8 °F 64% 30.05 in 10.0 mi South 11.5 mph - N/A   Clear
8:35 AM 28.4 °F 19.1 °F 17.6 °F 64% 30.06 in 10.0 mi South 10.4 mph - N/A   Clear
8:55 AM 28.4 °F 18.0 °F 17.6 °F 64% 30.06 in 10.0 mi South 12.7 mph - N/A   Clear
9:15 AM 30.2 °F 19.3 °F 17.6 °F 60% 30.05 in 10.0 mi South 15.0 mph - N/A   Clear
9:35 AM 32.0 °F 20.5 °F 17.6 °F 55% 30.03 in 10.0 mi South 18.4 mph - N/A   Clear
9:55 AM 33.8 °F 21.9 °F 17.6 °F 52% 30.01 in 10.0 mi South 21.9 mph - N/A   Clear
10:15 AM 33.8 °F 23.2 °F 17.6 °F 52% 30.01 in 10.0 mi SSW 17.3 mph 20.7 mph N/A   Clear
10:35 AM 35.6 °F 27.1 °F 19.4 °F 52% 30.02 in 10.0 mi SSW 12.7 mph - N/A   Clear
10:55 AM 37.4 °F 28.5 °F 19.4 °F 48% 30.00 in 10.0 mi SSW 15.0 mph - N/A   Clear
11:15 AM 39.2 °F 31.6 °F 19.4 °F 45% 29.99 in 10.0 mi SW 12.7 mph - N/A   Clear
11:35 AM 42.8 °F 37.0 °F 19.4 °F 39% 29.97 in 10.0 mi SSW 10.4 mph - N/A   Clear
11:55 AM 44.6 °F 38.8 °F 19.4 °F 37% 29.96 in 10.0 mi SSW 11.5 mph - N/A   Clear
12:15 PM 44.6 °F 39.2 °F 19.4 °F 37% 29.94 in 10.0 mi SSW 10.4 mph - N/A   Clear
12:35 PM 46.4 °F 40.4 °F 19.4 °F 34% 29.92 in 10.0 mi SSW 13.8 mph 17.3 mph N/A   Clear
12:55 PM 46.4 °F 40.4 °F 19.4 °F 34% 29.91 in 10.0 mi SSW 13.8 mph - N/A   Clear
1:15 PM 46.4 °F 40.4 °F 19.4 °F 34% 29.90 in 10.0 mi SSW 13.8 mph - N/A   Clear
1:35 PM 48.2 °F - 21.2 °F 34% 29.89 in 10.0 mi SSW 12.7 mph - N/A   Clear
1:55 PM 50.0 °F - 21.2 °F 32% 29.88 in 10.0 mi South 13.8 mph - N/A   Clear
2:15 PM 50.0 °F - 19.4 °F 30% 29.87 in 10.0 mi South 15.0 mph - N/A   Clear
2:35 PM 51.8 °F - 21.2 °F 30% 29.86 in 10.0 mi SSW 15.0 mph - N/A   Clear
2:55 PM 51.8 °F - 21.2 °F 30% 29.85 in 10.0 mi SSW 15.0 mph 18.4 mph N/A   Clear
3:15 PM 53.6 °F - 21.2 °F 28% 29.85 in 10.0 mi SW 11.5 mph - N/A   Clear
3:35 PM 53.6 °F - 21.2 °F 28% 29.85 in 10.0 mi SW 10.4 mph - N/A   Clear
3:55 PM 53.6 °F - 21.2 °F 28% 29.85 in 10.0 mi SW 12.7 mph - N/A   Clear
4:15 PM 53.6 °F - 21.2 °F 28% 29.85 in 10.0 mi SW 13.8 mph - N/A   Clear
4:35 PM 51.8 °F - 21.2 °F 30% 29.84 in 10.0 mi SSW 9.2 mph - N/A   Clear
4:55 PM 50.0 °F - 21.2 °F 32% 29.84 in 10.0 mi SSW 5.8 mph - N/A   Clear
5:15 PM 46.4 °F 41.5 °F 21.2 °F 37% 29.84 in 10.0 mi SSW 10.4 mph - N/A   Clear
5:35 PM 46.4 °F 41.1 °F 21.2 °F 37% 29.84 in 10.0 mi SSW 11.5 mph - N/A   Clear
5:55 PM 46.4 °F 41.9 °F 19.4 °F 34% 29.83 in 10.0 mi South 9.2 mph - N/A   Clear
6:15 PM 44.6 °F 40.2 °F 19.4 °F 37% 29.83 in 10.0 mi SSW 8.1 mph - N/A   Clear
6:35 PM 46.4 °F 43.5 °F 21.2 °F 37% 29.83 in 10.0 mi SW 5.8 mph - N/A   Clear
6:55 PM 44.6 °F 41.4 °F 19.4 °F 37% 29.83 in 10.0 mi SW 5.8 mph - N/A   Clear
7:15 PM 46.4 °F 41.5 °F 21.2 °F 37% 29.84 in 10.0 mi SW 10.4 mph - N/A   Clear
7:35 PM 46.4 °F 43.5 °F 19.4 °F 34% 29.84 in 10.0 mi SW 5.8 mph - N/A   Clear
7:55 PM 44.6 °F 43.1 °F 19.4 °F 37% 29.84 in 10.0 mi WSW 3.5 mph - N/A   Clear
8:15 PM 39.2 °F - 17.6 °F 42% 29.84 in 10.0 mi Calm Calm - N/A   Clear
8:35 PM 39.2 °F 34.2 °F 19.4 °F 45% 29.85 in 10.0 mi NNW 6.9 mph - N/A   Clear
8:55 PM 39.2 °F 35.9 °F 19.4 °F 45% 29.86 in 10.0 mi NW 4.6 mph - N/A   Clear
9:15 PM 39.2 °F 33.6 °F 17.6 °F 42% 29.86 in 10.0 mi NW 8.1 mph - N/A   Clear
9:35 PM 41.0 °F 34.3 °F 19.4 °F 42% 29.87 in 10.0 mi NNW 11.5 mph - N/A   Clear
9:55 PM 42.8 °F 38.6 °F 19.4 °F 39% 29.88 in 10.0 mi NNW 6.9 mph - N/A   Clear
10:15 PM 42.8 °F 39.3 °F 19.4 °F 39% 29.89 in 10.0 mi NW 5.8 mph - N/A   Clear
10:35 PM 41.0 °F 36.4 °F 19.4 °F 42% 29.90 in 10.0 mi North 6.9 mph - N/A   Clear
10:55 PM 44.6 °F - 19.4 °F 37% 29.92 in 10.0 mi Calm Calm - N/A   Clear
11:15 PM 42.8 °F 41.1 °F 19.4 °F 39% 29.92 in 10.0 mi NNE 3.5 mph - N/A   Clear
11:35 PM 42.8 °F 40.1 °F 19.4 °F 39% 29.92 in 10.0 mi NNE 4.6 mph - N/A   Clear
11:55 PM 39.2 °F 35.9 °F 17.6 °F 42% 29.92 in 10.0 mi NNE 4.6 mph - N/A   Clear